Location: Caucaguita
(10.3578°N, 66.8025°W)
Time: 03:03:31
(UTC+00:00)

SWIFT - Pass Details

Date: 18 November 2025
Orbit: 414 x 418 km, 20.6° (Epoch: 09 December)

Event Time Altitude Azimuth Distance (km) Brightness Sun altitude
Rises 23:30:07 0° 223° (SW) 2,331 6.5 -21.6°
Reaches altitude 10° 23:32:42 10° 203° (SSW) 1,472 5.0 -22.2°
Enters shadow 23:34:18 17° 177° (S) 1,130 4.0 -22.6°
